Total_Precipitation_Accumulation
0.01 0.01 0.03 0.03 0.03 0.04 0.07 0.12 0.21 0.29 0.24 0.34 0.44 0.54 0.68 0.84 1.09 1.15 1.26 1.38 1.66 1.96 2.34 3.05 3.70 4.24 4.91 5.67 6.24 6.14 5.53 5.09 4.64 4.23 3.75 3.73 3.59 3.38 3.18 2.96 2.75 2.72 2.63 2.48
0.02 0.04 0.04 0.03 0.03 0.04 0.07 0.12 0.18 0.23 0.20 0.22 0.38 0.66 0.81 0.87 1.05 1.03 1.04 1.11 1.32 1.70 2.31 3.06 3.67 3.87 3.91 4.18 4.41 3.92 3.74 3.76 3.48 3.33 3.33 3.27 3.14 2.86 2.73 2.73 2.92 2.57 2.53 2.43
0.03 0.05 0.03 0.03 0.04 0.05 0.09 0.12 0.15 0.22 0.22 0.29 0.45 0.86 1.06 0.96 0.98 0.85 0.83 1.06 1.54 1.97 2.39 2.91 3.11 3.12 3.01 2.97 2.95 2.73 2.68 3.01 3.05 3.13 3.21 3.22 3.20 3.02 2.83 2.65 2.79 2.46 2.29 2.31
0.02 0.03 0.04 0.05 0.05 0.06 0.09 0.08 0.06 0.09 0.18 0.42 0.60 1.09 1.31 1.20 1.14 0.87 0.90 1.30 1.81 2.13 2.38 2.39 1.98 1.82 1.96 2.07 2.18 2.44 2.52 2.69 2.66 2.82 2.80 2.73 2.51 2.39 2.33 2.30 2.46 2.55 2.33 2.23
0.03 0.04 0.04 0.05 0.05 0.05 0.06 0.05 0.04 0.08 0.19 0.47 0.76 1.21 1.48 1.36 1.14 0.90 0.86 0.94 1.32 1.48 1.46 1.33 1.19 1.22 1.44 1.73 1.99 2.33 2.44 2.49 2.42 2.43 2.57 2.77 2.67 2.69 2.56 2.47 2.71 2.77 2.80 2.54
0.04 0.05 0.05 0.04 0.04 0.04 0.05 0.07 0.14 0.23 0.42 0.90 0.98 1.10 1.41 1.29 1.07 0.93 0.80 0.72 0.92 0.98 0.84 0.90 1.00 1.22 1.47 1.64 1.77 2.00 2.15 2.34 2.36 2.41 2.54 2.59 2.64 2.81 2.76 2.68 2.57 2.49 2.57 2.52
0.10 0.09 0.07 0.04 0.04 0.05 0.05 0.07 0.29 0.65 0.96 1.11 0.84 0.99 1.33 1.00 0.79 0.68 0.56 0.50 0.53 0.63 0.72 0.89 1.02 1.23 1.34 1.43 1.47 1.66 1.73 1.92 2.08 2.18 2.28 2.38 2.52 2.64 2.58 2.65 2.60 2.50 2.30 2.18
0.15 0.15 0.09 0.05 0.05 0.05 0.05 0.05 0.14 0.27 0.40 0.61 0.79 1.20 1.31 0.92 0.61 0.47 0.44 0.44 0.45 0.54 0.64 0.73 0.87 0.95 1.04 1.24 1.48 1.66 1.63 1.62 1.67 1.72 1.88 2.06 2.11 2.23 2.26 2.57 2.48 2.43 2.31 2.18
0.06 0.06 0.05 0.04 0.05 0.04 0.05 0.04 0.05 0.08 0.13 0.38 0.85 1.14 1.10 0.76 0.59 0.54 0.53 0.54 0.54 0.56 0.69 0.69 0.71 0.87 0.94 0.92 1.06 1.28 1.41 1.49 1.54 1.54 1.60 1.65 1.68 1.82 2.06 2.13 2.00 1.87 1.98 2.10
0.03 0.04 0.04 0.03 0.04 0.04 0.05 0.05 0.05 0.07 0.15 0.30 0.68 1.21 1.46 1.16 0.83 0.65 0.70 0.63 0.57 0.53 0.59 0.72 0.76 0.81 0.83 0.82 0.99 1.15 1.28 1.38 1.43 1.41 1.41 1.33 1.47 1.58 1.77 1.86 1.86 1.78 1.75 1.94
0.03 0.03 0.04 0.04 0.05 0.06 0.06 0.06 0.07 0.09 0.11 0.20 0.51 0.84 0.90 1.00 0.85 0.63 0.67 0.63 0.57 0.51 0.52 0.65 0.69 0.76 0.74 0.73 0.86 1.03 1.23 1.30 1.21 1.24 1.27 1.35 1.43 1.61 1.69 1.67 1.73 1.76 1.79 1.94
0.03 0.02 0.02 0.05 0.07 0.07 0.08 0.09 0.10 0.11 0.13 0.14 0.27 0.47 0.51 0.58 0.70 0.90 0.86 0.71 0.68 0.64 0.57 0.63 0.68 0.73 0.69 0.69 0.77 0.88 1.06 1.21 1.24 1.23 1.31 1.41 1.48 1.58 1.65 1.59 1.69 1.89 1.94 2.00
0.03 0.03 0.04 0.13 0.17 0.15 0.12 0.11 0.11 0.11 0.12 0.13 0.25 0.46 0.47 0.48 0.52 0.66 0.80 0.86 0.74 0.60 0.60 0.65 0.76 0.71 0.65 0.67 0.73 0.86 1.13 1.33 1.50 1.55 1.50 1.49 1.47 1.56 1.70 1.77 1.81 1.91 2.04 2.14
0.03 0.04 0.04 0.11 0.19 0.23 0.21 0.17 0.14 0.11 0.10 0.10 0.16 0.35 0.45 0.58 0.65 0.64 0.76 0.90 0.74 0.56 0.58 0.70 0.80 0.85 0.89 0.90 0.93 1.06 1.24 1.31 1.43 1.42 1.40 1.48 1.55 1.69 1.85 1.93 2.00 2.05 2.07 2.13
0.03 0.03 0.03 0.03 0.07 0.14 0.21 0.20 0.14 0.10 0.08 0.10 0.12 0.22 0.39 0.60 0.75 0.84 0.87 0.91 0.77 0.66 0.71 0.76 0.85 0.93 1.01 1.09 1.08 1.08 1.17 1.20 1.33 1.63 1.76 1.91 1.95 1.98 2.10 2.20 2.21 2.25 2.25 2.22
0.06 0.05 0.04 0.04 0.06 0.09 0.13 0.17 0.14 0.10 0.10 0.11 0.14 0.26 0.40 0.64 0.72 0.80 0.80 0.81 0.77 0.79 0.82 0.90 0.95 1.01 1.06 1.14 1.25 1.30 1.30 1.35 1.55 1.99 2.28 2.40 2.46 2.49 2.55 2.61 2.59 2.59 2.55 2.69
0.12 0.11 0.09 0.06 0.08 0.11 0.16 0.15 0.15 0.13 0.13 0.17 0.23 0.33 0.44 0.61 0.80 0.90 0.81 0.69 0.71 0.73 0.77 0.86 1.03 1.15 1.19 1.25 1.34 1.44 1.52 1.58 1.73 2.02 2.24 2.36 2.47 2.56 2.73 2.76 2.76 2.75 2.77 2.80
0.20 0.21 0.18 0.13 0.14 0.21 0.21 0.22 0.24 0.23 0.24 0.27 0.39 0.51 0.56 0.62 0.74 0.79 0.70 0.68 0.71 0.75 0.86 0.98 1.03 1.20 1.33 1.45 1.61 1.84 2.01 2.12 2.15 2.27 2.45 2.56 2.55 2.59 2.65 2.65 2.57 2.60 2.74 2.76
0.26 0.30 0.28 0.25 0.25 0.24 0.28 0.33 0.34 0.35 0.47 0.52 0.65 0.78 0.85 0.83 0.82 0.95 0.86 0.79 0.81 0.93 1.07 1.26 1.40 1.44 1.55 1.69 1.84 2.02 2.29 2.46 2.52 2.48 2.61 2.73 2.82 2.87 2.75 2.64 2.65 2.70 2.76 2.63
0.31 0.35 0.42 0.37 0.42 0.45 0.41 0.46 0.44 0.49 0.87 0.82 0.89 1.02 1.09 1.16 1.42 1.44 1.13 1.09 1.01 1.01 1.13 1.26 1.44 1.57 1.64 1.82 1.92 2.00 2.16 2.30 2.41 2.46 2.58 2.72 2.81 2.97 3.06 2.98 2.97 2.91 2.82 2.72
0.48 0.51 0.48 0.48 0.55 0.55 0.50 0.48 0.53 0.99 1.39 1.17 1.11 1.18 1.30 1.47 1.50 1.38 1.20 1.24 1.27 1.13 1.10 1.15 1.24 1.43 1.53 1.63 1.75 1.92 2.01 2.01 2.10 2.16 2.19 2.39 2.66 2.87 3.00 3.09 3.06 3.06 2.97 2.86
0.74 0.78 0.73 0.69 0.89 0.99 0.68 0.60 0.93 1.26 1.23 1.34 1.27 1.29 1.38 1.45 1.47 1.49 1.48 1.47 1.38 1.26 1.14 1.16 1.25 1.36 1.43 1.58 1.83 2.03 2.07 2.06 2.09 2.16 2.28 2.42 2.64 2.74 2.77 2.87 2.91 3.04 3.01 2.93
1.00 1.07 1.08 1.10 1.24 1.12 0.82 0.88 0.99 1.05 1.23 1.34 1.37 1.38 1.40 1.43 1.41 1.36 1.32 1.35 1.40 1.29 1.26 1.22 1.25 1.39 1.59 1.79 2.02 2.25 2.26 2.31 2.35 2.40 2.49 2.54 2.61 2.71 2.78 2.83 2.83 2.82 2.79 2.66
1.07 0.92 1.12 1.38 1.53 1.31 1.12 1.07 1.12 1.21 1.35 1.45 1.57 1.63 1.53 1.43 1.34 1.36 1.36 1.34 1.41 1.40 1.33 1.30 1.29 1.39 1.58 1.70 1.81 2.04 2.20 2.27 2.43 2.45 2.39 2.36 2.35 2.42 2.49 2.59 2.63 2.58 2.50 2.43
1.17 1.18 1.37 1.76 1.96 1.82 1.61 1.39 1.34 1.42 1.68 1.85 1.82 1.76 1.69 1.65 1.59 1.65 1.64 1.53 1.45 1.42 1.44 1.43 1.46 1.52 1.56 1.59 1.65 1.77 1.94 2.09 2.29 2.41 2.41 2.44 2.43 2.46 2.50 2.56 2.66 2.53 2.40 2.38
1.16 1.46 1.79 2.11 2.04 2.13 2.00 1.62 1.57 1.62 1.78 1.91 1.86 1.86 1.91 1.90 1.80 1.66 1.59 1.53 1.51 1.50 1.54 1.59 1.63 1.64 1.62 1.59 1.69 1.81 1.97 2.17 2.42 2.45 2.36 2.37 2.43 2.52 2.60 2.64 2.70 2.77 2.52 2.45